User: anonymous   Login
Location: SAPM � Hemmingford
(45.0500°N, 73.5833°W)
Time: 15:40:36
(UTC-04:00)
Language:

Cosmos 1674 Rocket - Orbit

View from above orbital plane
View from above orbital plane
View from above satellite
View from above satellite

Ground track
Ground track

The orbit data is extracted from the following two-line orbital elements,

1 15945U 85069B   18108.94524338 +.00000086 +00000-0 +74136-5 0  9998
2 15945 082.5304 206.6620 0019571 357.7537 002.3587 14.83967111745293
Epoch (UTC): 18 April 2018 22:41:09
Eccentricity: 0.0019571
inclination: 82.5304°
perigee height: 603 km
apogee height: 630 km
right ascension of ascending node: 206.6620°
argument of perigee: 357.7537°
revolutions per day: 14.83967111
mean anomaly at epoch: 2.3587°
orbit number at epoch: 74529

The dashed part of the orbit path shows where the satellite is in the earth's shadow,  

DLR